Location: Pouilly
(47.2624°N, 4.5558°E)
Time: 20:56:40
(UTC+00:00)

STARLINK-24 - Pass Details

Date: 07 June 2020
Orbit: 525 x 527 km, 53.0° (Epoch: 09 July)

Event Time Altitude Azimuth Distance (km) Brightness Sun altitude
Exits shadow 03:04:20 - 235° (SW) 1,941 5.7 -6.3°
Reaches altitude 10° 03:04:47 10° 235° (SW) 1,764 5.5 -6.3°
Maximum altitude 03:08:46 79° 150° (SSE) 542 3.6 -5.8°
Drops below altitude 10° 03:12:48 10° 63° (ENE) 1,774 7.8 -5.3°
Sets 03:15:01 0° 62° (ENE) 2,666 9.1 -5.0°
